Location: Pcim
(49.7500°N, 19.9670°E)
Time: 02:40:38
(UTC+02:00)

AO-91 - Pass Details

Date: 26 April 2024
Orbit: 441 x 736 km, 97.6° (Epoch: 23 May)

Event Time Altitude Azimuth Distance (km) Brightness Sun altitude
Rises 21:13:10 0° 34° (NE) 2,448 ? -12.1°
Reaches altitude 10° 21:16:28 10° 70° (ENE) 1,590 ? -12.6°
Enters shadow 21:17:06 11° 81° (E) 1,530 ? -12.6°
